Wind from 118 at 4 knots gusting 6

Air temperature 19.4° C
Dewpoint 14.9° C

Last reported at 2014-Apr-19 18:47 UTC.
Time now 2014-Apr-19 19:44 UTC

Location: N 39°03' E 001°25'.
View on Google Maps.

See reports from other nearby stations

Tides Stations Pressure Air Temp Water Temp Dewpoint Dewpoint depression Visibility Wind Speed Wind Dir Waves Ship positions

  
sailing weather and tide predictions

DW4510 Ibiza ES weather

date/time (UTC)wind fromknots sea level pressurealtimeterstation pressurevisibilityair tempwater tempwave heightnotes
2014-Apr-19 18:47 118 4 gusting 6 19.4
2014-Apr-19 18:38 116 6 gusting 6 20.0
2014-Apr-19 18:29 116 4 gusting 5 20.0
2014-Apr-19 18:20 110 4 gusting 7 20.0
2014-Apr-19 18:11 104 5 gusting 6 20.6
2014-Apr-19 18:02 111 3 gusting 5 20.6
2014-Apr-19 17:53 122 2 gusting 7 20.6
2014-Apr-19 17:44 107 3 gusting 7 20.6
2014-Apr-19 17:35 137 5 gusting 6 20.6
2014-Apr-19 17:26 135 5 gusting 7 21.1
2014-Apr-19 17:17 133 7 gusting 8 21.7
2014-Apr-19 17:08 139 8 gusting 8 21.7
2014-Apr-19 16:59 117 2 gusting 8 21.7
2014-Apr-19 16:50 121 5 gusting 7 22.2
2014-Apr-19 16:41 100 7 gusting 7 22.8
2014-Apr-19 16:32 111 2 gusting 6 22.8
2014-Apr-19 16:23 083 6 gusting 6 23.9
2014-Apr-19 16:14 101 3 gusting 7 24.4
2014-Apr-19 16:05 102 7 gusting 8 24.4
2014-Apr-19 15:56 091 5 gusting 6 25.0
2014-Apr-19 15:47 124 4 gusting 7 25.6
2014-Apr-19 15:38 114 5 gusting 8 26.7
2014-Apr-19 15:29 085 3 gusting 5 27.2
2014-Apr-19 15:20 27.8
2014-Apr-19 15:11 037 0 gusting 1 27.2
2014-Apr-19 15:02 353 0 gusting 2 26.7
2014-Apr-19 14:53 332 2 gusting 5 26.7
2014-Apr-19 14:44 305 2 gusting 6 26.7
2014-Apr-19 14:35 343 3 gusting 5 27.8
2014-Apr-19 14:26 006 3 gusting 5 27.8
2014-Apr-19 14:17 358 5 gusting 5 27.2
2014-Apr-19 14:08 357 4 gusting 7 26.7
2014-Apr-19 13:59 003 3 gusting 7 26.7
2014-Apr-19 13:50 015 2 gusting 7 26.7
2014-Apr-19 13:41 358 5 gusting 6 26.7
2014-Apr-19 13:32 004 5 gusting 8 26.7
2014-Apr-19 13:23 341 5 gusting 5 26.1
2014-Apr-19 13:14 334 3 gusting 5 26.1
2014-Apr-19 13:05 358 3 gusting 5 25.6
2014-Apr-19 12:56 022 5 gusting 6 25.6
2014-Apr-19 12:47 002 6 gusting 6 25.0
2014-Apr-19 12:38 009 2 gusting 5 25.0
2014-Apr-19 12:29 349 4 gusting 5 25.0
2014-Apr-19 12:20 354 5 gusting 5 24.4
2014-Apr-19 12:11 245 1 gusting 6 24.4
2014-Apr-19 12:02 279 2 gusting 3 23.9
2014-Apr-19 11:53 358 2 gusting 2 23.9
2014-Apr-19 11:44 23.9
2014-Apr-19 11:35 311 5 gusting 7 23.3
2014-Apr-19 11:26 303 3 gusting 7 23.3
2014-Apr-19 11:17 318 3 gusting 5 23.3
2014-Apr-19 11:08 281 1 gusting 8 22.8
2014-Apr-19 10:59 270 8 gusting 9 22.8
2014-Apr-19 10:50 285 6 gusting 9 22.8
2014-Apr-19 10:41 270 5 gusting 11 22.2
2014-Apr-19 10:32 267 4 gusting 9 22.2
2014-Apr-19 10:23 271 5 gusting 11 22.8
2014-Apr-19 10:14 280 8 gusting 13 22.2
2014-Apr-19 10:05 269 6 gusting 12 22.2
2014-Apr-19 09:56 258 7 gusting 11 22.2
2014-Apr-19 09:47 276 11 gusting 11 22.2
2014-Apr-19 09:38 267 5 gusting 11 22.2
2014-Apr-19 09:29 263 3 gusting 11 22.2
2014-Apr-19 09:20 266 5 gusting 13 22.2
2014-Apr-19 09:11 257 13 gusting 13 22.2
2014-Apr-19 09:02 279 9 gusting 13 21.7
2014-Apr-19 08:53 257 13 gusting 13 21.7
2014-Apr-19 08:44 249 3 gusting 10 21.7
2014-Apr-19 08:35 270 9 gusting 12 21.7
2014-Apr-19 08:26 263 5 gusting 11 21.7
2014-Apr-19 08:17 257 5 gusting 11 21.7
2014-Apr-19 08:08 268 7 gusting 11 21.1
2014-Apr-19 07:59 236 8 gusting 9 21.1
2014-Apr-19 07:50 217 6 gusting 9 20.6
2014-Apr-19 07:41 234 5 gusting 9 20.0
2014-Apr-19 07:32 209 9 gusting 13 20.0
2014-Apr-19 07:23 227 9 gusting 9 19.4
2014-Apr-19 07:14 244 5 gusting 9 18.9
2014-Apr-19 07:05 239 9 gusting 11 18.3
2014-Apr-19 06:56 221 5 gusting 13 17.8
2014-Apr-19 06:47 233 6 gusting 11 17.2
2014-Apr-19 06:38 205 10 gusting 10 17.2
2014-Apr-19 06:29 222 6 gusting 11 16.7
2014-Apr-19 06:20 235 6 gusting 11 16.7
2014-Apr-19 06:11 237 8 gusting 13 16.1
2014-Apr-19 06:02 203 6 gusting 14 16.1
2014-Apr-19 05:53 235 5 gusting 13 16.1
2014-Apr-19 05:44 217 13 gusting 14 16.1
2014-Apr-19 05:35 237 14 gusting 14 16.1
2014-Apr-19 05:26 232 6 gusting 11 16.1
2014-Apr-19 05:17 215 8 gusting 11 16.1
2014-Apr-19 05:08 209 6 gusting 11 16.1
2014-Apr-19 04:59 200 8 gusting 9 16.1
2014-Apr-19 04:50 215 5 gusting 10 16.1
2014-Apr-19 04:41 200 6 gusting 8 16.1
2014-Apr-19 04:32 206 5 gusting 8 16.1
2014-Apr-19 04:23 218 3 gusting 10 16.1
2014-Apr-19 04:14 210 7 gusting 7 16.1
2014-Apr-19 04:05 210 7 gusting 10 16.1
2014-Apr-19 03:56 200 7 gusting 13 16.1
2014-Apr-19 03:47 217 7 gusting 11 16.1
2014-Apr-19 03:38 212 5 gusting 13 16.1
2014-Apr-19 03:29 198 7 gusting 8 16.1
2014-Apr-19 03:20 206 6 gusting 8 16.1
2014-Apr-19 03:11 218 8 gusting 13 16.1
2014-Apr-19 02:53 205 9 gusting 11 15.6
2014-Apr-19 02:44 215 10 gusting 11 15.6
2014-Apr-19 02:35 206 11 gusting 13 16.1
2014-Apr-19 02:26 221 11 gusting 13 16.1
2014-Apr-19 02:17 201 13 gusting 13 16.1
2014-Apr-19 02:08 212 11 gusting 13 16.1
2014-Apr-19 01:59 219 6 gusting 13 16.1
2014-Apr-19 01:50 210 10 gusting 11 16.1
2014-Apr-19 01:41 227 5 gusting 11 16.1
2014-Apr-19 01:32 205 7 gusting 13 16.1
2014-Apr-19 01:23 194 7 gusting 13 16.1
2014-Apr-19 01:14 202 11 gusting 13 16.7
2014-Apr-19 01:05 198 9 gusting 13 16.7
2014-Apr-19 00:56 199 8 gusting 9 16.7
2014-Apr-19 00:47 191 2 gusting 10 16.7
2014-Apr-19 00:38 184 10 gusting 10 16.7
2014-Apr-19 00:29 160 5 gusting 8 16.7
2014-Apr-19 00:20 157 7 gusting 10 16.7
2014-Apr-19 00:11 157 6 gusting 10 17.2
2014-Apr-19 00:02 154 10 gusting 10 16.7
2014-Apr-18 23:53 143 5 gusting 9 17.2
2014-Apr-18 23:44 155 7 gusting 9 16.7
2014-Apr-18 23:35 142 5 gusting 8 16.7
2014-Apr-18 23:26 135 4 gusting 8 16.7
2014-Apr-18 23:17 150 5 gusting 7 17.2
2014-Apr-18 23:08 159 2 gusting 6 17.2
2014-Apr-18 22:59 159 2 gusting 7 17.2
2014-Apr-18 22:50 163 7 gusting 7 17.2
2014-Apr-18 22:41 145 4 gusting 7 17.2
2014-Apr-18 22:32 139 5 gusting 6 17.2
2014-Apr-18 22:23 129 6 gusting 7 17.2
2014-Apr-18 22:14 112 3 gusting 5 17.8
2014-Apr-18 22:05 131 2 gusting 5 17.2
2014-Apr-18 21:56 137 3 gusting 5 17.8
2014-Apr-18 21:47 125 5 gusting 6 17.2
2014-Apr-18 21:38 115 3 gusting 6 17.2
2014-Apr-18 21:29 114 4 gusting 4 17.8
2014-Apr-18 21:20 116 4 gusting 5 17.8
2014-Apr-18 21:11 140 3 gusting 5 17.8
2014-Apr-18 21:02 133 2 gusting 7 17.8
2014-Apr-18 20:53 120 3 gusting 6 17.8
2014-Apr-18 20:44 129 4 gusting 4 17.8
2014-Apr-18 20:35 113 3 gusting 6 18.3
2014-Apr-18 20:26 127 5 gusting 5 18.3
2014-Apr-18 20:17 147 3 gusting 10 18.3
2014-Apr-18 20:08 145 8 gusting 10 18.3
2014-Apr-18 19:59 119 7 gusting 7 18.3
2014-Apr-18 19:50 094 3 gusting 5 18.9
2014-Apr-18 19:41 132 3 gusting 8 18.9
2014-Apr-18 19:32 139 4 gusting 6 19.4
2014-Apr-18 19:23 144 6 gusting 6 19.4
2014-Apr-18 19:14 138 3 gusting 6 19.4
2014-Apr-18 19:05 136 6 gusting 6 20.0
2014-Apr-18 18:56 145 3 gusting 6 20.6
2014-Apr-18 18:47 150 6 gusting 6 21.1
2014-Apr-18 18:38 152 5 gusting 5 21.7
2014-Apr-18 18:29 158 4 gusting 5 22.8
2014-Apr-18 18:20 155 5 gusting 5 23.3
2014-Apr-18 18:11 161 3 gusting 4 25.0
2014-Apr-18 18:02 143 3 gusting 6 26.7
2014-Apr-18 17:53 129 6 gusting 8 27.8
2014-Apr-18 17:44 136 4 gusting 7 27.8
2014-Apr-18 17:35 141 3 gusting 6 28.9
2014-Apr-18 17:26 134 6 gusting 6 28.3
2014-Apr-18 17:17 134 3 gusting 6 28.9
2014-Apr-18 17:08 130 6 gusting 7 29.4
2014-Apr-18 16:59 141 2 gusting 8 30.0
2014-Apr-18 16:50 122 5 gusting 10 29.4
2014-Apr-18 16:41 138 10 gusting 10 30.0
2014-Apr-18 16:32 149 5 gusting 9 30.0
2014-Apr-18 16:23 132 5 gusting 8 30.0
2014-Apr-18 16:14 138 6 gusting 7 30.0
2014-Apr-18 16:05 129 3 gusting 9 30.0
2014-Apr-18 15:56 159 6 gusting 6 29.4
2014-Apr-18 15:47 181 3 gusting 6 27.8
2014-Apr-18 15:38 132 4 gusting 5 27.2
2014-Apr-18 15:29 129 4 gusting 7 26.7
2014-Apr-18 15:20 140 7 gusting 10 26.7
2014-Apr-18 15:11 127 2 gusting 7 26.1
2014-Apr-18 15:02 105 3 gusting 8 26.1
2014-Apr-18 14:53 144 3 gusting 5 26.7
2014-Apr-18 14:44 130 4 gusting 6 26.1
2014-Apr-18 14:35 159 5 gusting 6 26.1
2014-Apr-18 14:26 152 4 gusting 8 25.6
2014-Apr-18 14:17 159 6 gusting 8 25.6
2014-Apr-18 14:08 137 3 gusting 6 25.0
2014-Apr-18 13:59 159 3 gusting 6 24.4
2014-Apr-18 13:50 163 5 gusting 9 24.4
2014-Apr-18 13:41 117 5 gusting 9 24.4
2014-Apr-18 13:32 119 5 gusting 9 24.4
2014-Apr-18 13:23 138 3 gusting 8 23.9
2014-Apr-18 13:14 139 6 gusting 9 23.9
2014-Apr-18 13:05 123 3 gusting 6 23.3
2014-Apr-18 12:56 111 6 gusting 8 23.3
2014-Apr-18 12:47 121 3 gusting 8 23.3
2014-Apr-18 12:38 128 6 gusting 9 22.8
2014-Apr-18 12:29 119 5 gusting 8 22.8
2014-Apr-18 12:20 115 5 gusting 10 22.8
2014-Apr-18 12:11 139 6 gusting 7 22.2
2014-Apr-18 12:02 115 3 gusting 7 22.2
2014-Apr-18 11:53 146 1 gusting 11 21.7
2014-Apr-18 11:44 115 5 gusting 7 21.7
2014-Apr-18 11:35 125 3 gusting 5 21.7
2014-Apr-18 11:26 151 4 gusting 11 21.1
2014-Apr-18 11:17 151 4 gusting 6 21.1
2014-Apr-18 11:08 130 4 gusting 6 21.1
2014-Apr-18 10:59 122 3 gusting 6 21.1
2014-Apr-18 10:50 130 4 gusting 6 20.6
2014-Apr-18 10:41 117 4 gusting 5 20.6
2014-Apr-18 10:32 119 3 gusting 7 20.0
2014-Apr-18 10:23 126 4 gusting 6 20.0
2014-Apr-18 10:14 134 3 gusting 6 19.4
2014-Apr-18 10:05 091 5 gusting 6 19.4
2014-Apr-18 09:56 113 3 gusting 5 19.4
2014-Apr-18 09:47 112 2 gusting 5 19.4
2014-Apr-18 09:38 134 3 gusting 5 18.9
2014-Apr-18 09:29 119 1 gusting 6 18.9
2014-Apr-18 09:20 114 4 gusting 6 18.9
2014-Apr-18 09:11 122 5 gusting 5 18.3
2014-Apr-18 09:02 105 0 gusting 5 18.3
2014-Apr-18 08:53 092 1 gusting 5 17.8
2014-Apr-18 08:44 096 2 gusting 5 17.8
2014-Apr-18 08:35 126 2 gusting 5 17.8
2014-Apr-18 08:26 119 1 gusting 4 17.2
2014-Apr-18 08:17 100 2 gusting 3 17.2
2014-Apr-18 08:08 106 3 gusting 3 17.2
2014-Apr-18 07:59 122 2 gusting 3 17.2
2014-Apr-18 07:50 109 1 gusting 2 16.7
2014-Apr-18 07:41 102 1 gusting 3 16.7
2014-Apr-18 07:32 129 2 gusting 3 16.7
2014-Apr-18 07:23 16.1
2014-Apr-18 07:14 111 1 gusting 2 15.6
2014-Apr-18 07:05 15.6
2014-Apr-18 06:56 15.0
2014-Apr-18 06:47 118 1 gusting 2 15.0
2014-Apr-18 06:38 121 0 gusting 2 14.4
2014-Apr-18 06:29 090 0 gusting 1 14.4
2014-Apr-18 06:20 090 0 gusting 1 14.4
2014-Apr-18 06:11 14.4
2014-Apr-18 06:02 14.4
2014-Apr-18 05:53 14.4
2014-Apr-18 05:44 14.4
2014-Apr-18 05:35 14.4
2014-Apr-18 05:26 14.4
2014-Apr-18 05:17 14.4
2014-Apr-18 05:08 305 1 gusting 2 13.9
2014-Apr-18 04:59 311 0 gusting 1 14.4
2014-Apr-18 04:50 289 1 gusting 1 14.4
2014-Apr-18 04:41 14.4
2014-Apr-18 04:32 158 0 gusting 1 14.4
2014-Apr-18 04:23 158 1 gusting 1 14.4
2014-Apr-18 04:14 14.4
2014-Apr-18 04:05 14.4
2014-Apr-18 03:56 14.4
2014-Apr-18 03:47 14.4
2014-Apr-18 03:38 162 0 gusting 2 14.4
2014-Apr-18 03:29 161 2 gusting 2 14.4
2014-Apr-18 03:20 145 2 gusting 2 14.4
2014-Apr-18 03:11 102 1 gusting 1 14.4
2014-Apr-18 03:02 046 1 gusting 1 15.0
2014-Apr-18 02:53 15.0
2014-Apr-18 02:44 208 0 gusting 1 14.4
2014-Apr-18 02:35 149 1 gusting 1 14.4
2014-Apr-18 02:26 143 1 gusting 1 15.0
2014-Apr-18 02:17 144 1 gusting 1 15.0
2014-Apr-18 02:08 094 0 gusting 0 15.0
2014-Apr-18 01:59 090 0 gusting 0 15.0
2014-Apr-18 01:50 15.0
2014-Apr-18 01:41 15.0
2014-Apr-18 01:32 046 1 gusting 1 15.0
2014-Apr-18 01:23 15.0
2014-Apr-18 01:14 15.0
2014-Apr-18 01:05 15.6
2014-Apr-18 00:56 15.6
2014-Apr-18 00:47 15.6
2014-Apr-18 00:38 15.6
2014-Apr-18 00:29 15.6
2014-Apr-18 00:20 15.6
2014-Apr-18 00:11 15.6
2014-Apr-18 00:02 158 0 gusting 1 15.6
2014-Apr-17 23:53 15.6
2014-Apr-17 23:44 158 0 gusting 1 15.6
2014-Apr-17 23:35 158 1 gusting 1 15.6
2014-Apr-17 23:26 158 1 gusting 2 15.6
2014-Apr-17 23:17 158 2 gusting 2 16.1
2014-Apr-17 23:08 158 0 gusting 1 16.1
2014-Apr-17 22:59 151 0 gusting 2 16.1
2014-Apr-17 22:50 154 2 gusting 2 16.1
2014-Apr-17 22:41 170 0 gusting 1 16.1
2014-Apr-17 22:32 170 1 gusting 1 16.1
2014-Apr-17 22:23 174 1 gusting 1 16.1
2014-Apr-17 22:14 162 1 gusting 1 16.1
2014-Apr-17 22:05 158 1 gusting 1 16.7
2014-Apr-17 21:56 158 1 gusting 2 16.7
2014-Apr-17 21:47 151 0 gusting 1 16.7
2014-Apr-17 21:38 156 1 gusting 2 16.7
2014-Apr-17 21:29 139 2 gusting 2 16.7
2014-Apr-17 21:20 172 1 gusting 2 16.7
2014-Apr-17 21:11 161 1 gusting 2 16.7
2014-Apr-17 21:02 152 1 gusting 1 16.7
2014-Apr-17 20:53 17.2
2014-Apr-17 20:44 133 1 gusting 2 17.2
2014-Apr-17 20:35 154 0 gusting 2 17.2
2014-Apr-17 20:26 149 2 gusting 3 17.2
2014-Apr-17 20:17 148 2 gusting 2 17.2
2014-Apr-17 20:08 154 1 gusting 2 17.2
2014-Apr-17 19:59 147 1 gusting 2 17.2
2014-Apr-17 19:50 142 2 gusting 3 17.2
2014-Apr-17 19:41 149 2 gusting 2 17.8
2014-Apr-17 19:32 152 2 gusting 3 17.8
2014-Apr-17 19:23 155 3 gusting 3 17.8
2014-Apr-17 19:14 154 2 gusting 3 18.3
2014-Apr-17 19:05 138 3 gusting 4 18.3